| time (UTC) | temp C | wind direction | speed KPH | gust KPH | rain 1hr cm | rain 24hr cm | rain mn cm | humidity % | barometer mb |
| 20260504045309 | 7 | 337 | 8.0 | 20.9 | 0.00 | 0.00 | 0.00 | 69 | 990.0 |
| 20260504043310 | 6 | 337 | 6.4 | 12.9 | 0.00 | 0.00 | 0.00 | 69 | 990.0 |
| 20260504041308 | 6 | 337 | 4.8 | 9.7 | 0.00 | 0.00 | 0.00 | 70 | 990.0 |
| 20260504035309 | 5 | 315 | 3.2 | 8.0 | 0.00 | 0.00 | 0.00 | 72 | 990.0 |
| 20260504033310 | 5 | 315 | 4.8 | 8.0 | 0.00 | 0.00 | 0.00 | 71 | 991.0 |
| 20260504031309 | 5 | 315 | 4.8 | 11.3 | 0.00 | 0.00 | 0.00 | 72 | 991.0 |
| 20260504025310 | 5 | 315 | 8.0 | 11.3 | 0.00 | 0.00 | 0.00 | 72 | 991.0 |
| 20260504023310 | 5 | 315 | 6.4 | 16.1 | 0.00 | 0.00 | 0.00 | 72 | 991.0 |
| 20260504021310 | 5 | 315 | 6.4 | 9.7 | 0.00 | 0.00 | 0.00 | 71 | 990.0 |
| 20260504015309 | 5 | 337 | 6.4 | 12.9 | 0.00 | 0.00 | 0.00 | 70 | 990.0 |
| 20260504013309 | 5 | 337 | 6.4 | 9.7 | 0.00 | 0.00 | 0.00 | 69 | 990.0 |
| 20260504011310 | 5 | 337 | 8.0 | 11.3 | 0.00 | 0.00 | 0.00 | 70 | 990.0 |
| 20260504005309 | 5 | 337 | 4.8 | 8.0 | 0.00 | 0.00 | 0.00 | 69 | 991.0 |
| 20260504003310 | 5 | 337 | 6.4 | 11.3 | 0.00 | 0.00 | 0.00 | 69 | 990.0 |
| 20260504001309 | 5 | 337 | 4.8 | 12.9 | 0.00 | 0.00 | 0.00 | 70 | 991.0 |
| 20260503235310 | 5 | 337 | 6.4 | 9.7 | 0.00 | 0.00 | 0.00 | 68 | 991.0 |
| 20260503233313 | 5 | 337 | 6.4 | 9.7 | 0.00 | 0.00 | 0.00 | 67 | 991.0 |
| 20260503231310 | 5 | 337 | 4.8 | 8.0 | 0.00 | 0.00 | 0.00 | 66 | 991.0 |
| 20260503225310 | 5 | 337 | 3.2 | 6.4 | 0.00 | 0.00 | 0.00 | 65 | 991.0 |
| 20260503223310 | 5 | 337 | 3.2 | 4.8 | 0.00 | 0.00 | 0.00 | 65 | 991.0 |
| 20260503221310 | 5 | 337 | 3.2 | 4.8 | 0.00 | 0.00 | 0.00 | 64 | 991.0 |
| 20260503215310 | 5 | 337 | 1.6 | 3.2 | 0.00 | 0.00 | 0.00 | 63 | 991.0 |
| 20260503213309 | 5 | 337 | 3.2 | 3.2 | 0.00 | 0.00 | 0.00 | 64 | 991.0 |
| 20260503205310 | 5 | 337 | 3.2 | 4.8 | 0.00 | 0.00 | 0.00 | 65 | 991.0 |
| 20260503203310 | 5 | 337 | 1.6 | 3.2 | 0.00 | 0.00 | 0.00 | 65 | 992.0 |
| 20260503201310 | 6 | 337 | 1.6 | 4.8 | 0.00 | 0.00 | 0.00 | 66 | 992.0 |
| 20260503195310 | 5 | 337 | 1.6 | 3.2 | 0.00 | 0.00 | 0.00 | 67 | 992.0 |
| 20260503193310 | 6 | 337 | 1.6 | 3.2 | 0.00 | 0.00 | 0.00 | 67 | 992.0 |
| 20260503191310 | 5 | 337 | 0.0 | 1.6 | 0.00 | 0.00 | 0.00 | 68 | 993.0 |
| 20260503185310 | 5 | 45 | 0.0 | 1.6 | 0.00 | 0.00 | 0.00 | 69 | 993.0 |
| 20260503183309 | 6 | 45 | 0.0 | 0.0 | 0.00 | 0.00 | 0.00 | 66 | 993.0 |
| 20260503181310 | 7 | 45 | 0.0 | 0.0 | 0.00 | 0.00 | 0.00 | 65 | 992.0 |
| 20260503175310 | 7 | 45 | 0.0 | 0.0 | 0.00 | 0.00 | 0.00 | 63 | 993.0 |
| 20260503173310 | 7 | 45 | 0.0 | 0.0 | 0.00 | 0.00 | 0.00 | 62 | 992.0 |
| 20260503171309 | 8 | 45 | 0.0 | 0.0 | 0.00 | 0.00 | 0.00 | 61 | 993.0 |
| 20260503131310 | 11 | 112 | 3.2 | 4.8 | 0.00 | 0.00 | 0.00 | 57 | 993.0 |
| 20260503081311 | 10 | 45 | 3.2 | 6.4 | 0.00 | 0.00 | 0.00 | 67 | 994.0 |
| 20260503071310 | 10 | 22 | 1.6 | 4.8 | 0.00 | 0.00 | 0.00 | 76 | 994.0 |
| 20260503053310 | 5 | 337 | 3.2 | 9.7 | 0.00 | 0.00 | 0.00 | 86 | 995.0 |